| time (UTC) | temp C | wind direction | speed KPH | gust KPH | rain 1hr cm | rain 24hr cm | rain mn cm | humidity % | barometer mb |
| 20260507090034 | 11 | 282 | 3.2 | 19.3 | 0.00 | 0.00 | 0.00 | 60 | 1010.9 |
| 20260507084509 | 12 | 290 | 3.2 | 19.3 | 0.00 | 0.00 | 0.00 | 60 | 1010.8 |
| 20260507083045 | 11 | 273 | 4.8 | 19.3 | 0.00 | 0.00 | 0.00 | 57 | 1010.7 |
| 20260507081521 | 11 | 269 | 3.2 | 17.7 | 0.00 | 0.00 | 0.00 | 58 | 1010.7 |
| 20260507080056 | 11 | 288 | 3.2 | 14.5 | 0.00 | 0.00 | 0.00 | 59 | 1010.8 |
| 20260507074527 | 10 | 227 | 3.2 | 16.1 | 0.00 | 0.00 | 0.00 | 60 | 1010.9 |
| 20260507073102 | 9 | 294 | 0.0 | 12.9 | 0.00 | 0.00 | 0.00 | 62 | 1011.0 |
| 20260507071537 | 8 | 257 | 0.0 | 16.1 | 0.00 | 0.00 | 0.00 | 61 | 1011.1 |
| 20260507070025 | 8 | 204 | 0.0 | 9.7 | 0.00 | 0.00 | 0.00 | 63 | 1011.1 |
| 20260507064517 | 7 | 269 | 1.6 | 12.9 | 0.00 | 0.00 | 0.00 | 64 | 1011.1 |
| 20260507063059 | 7 | 289 | 1.6 | 16.1 | 0.00 | 0.00 | 0.00 | 62 | 1011.2 |
| 20260507061531 | 7 | 275 | 3.2 | 16.1 | 0.00 | 0.00 | 0.00 | 65 | 1011.2 |
| 20260507060034 | 6 | 316 | 3.2 | 12.9 | 0.00 | 0.00 | 0.00 | 67 | 1011.1 |
| 20260507054505 | 6 | 317 | 0.0 | 9.7 | 0.00 | 0.00 | 0.00 | 68 | 1011.0 |
| 20260507053045 | 6 | 275 | 1.6 | 11.3 | 0.00 | 0.00 | 0.00 | 69 | 1011.2 |
| 20260507051519 | 6 | 286 | 1.6 | 14.5 | 0.00 | 0.00 | 0.00 | 68 | 1011.0 |
| 20260507050052 | 6 | 307 | 4.8 | 19.3 | 0.00 | 0.00 | 0.00 | 69 | 1011.1 |
| 20260507044544 | 6 | 293 | 0.0 | 14.5 | 0.00 | 0.00 | 0.00 | 69 | 1011.1 |
| 20260507043039 | 5 | 300 | 1.6 | 14.5 | 0.00 | 0.00 | 0.00 | 71 | 1011.2 |
| 20260507041515 | 5 | 271 | 0.0 | 9.7 | 0.00 | 0.00 | 0.00 | 74 | 1011.3 |
| 20260507040050 | 5 | 267 | 0.0 | 9.7 | 0.00 | 0.00 | 0.00 | 74 | 1011.4 |
| 20260507034542 | 5 | 299 | 0.0 | 11.3 | 0.00 | 0.00 | 0.00 | 75 | 1011.6 |
| 20260507033036 | 5 | 246 | 0.0 | 6.4 | 0.00 | 0.00 | 0.00 | 74 | 1011.7 |
| 20260507031512 | 5 | 267 | 0.0 | 12.9 | 0.00 | 0.00 | 0.00 | 74 | 1011.8 |
| 20260507030045 | 5 | 273 | 0.0 | 9.7 | 0.00 | 0.00 | 0.00 | 75 | 1011.9 |
| 20260507024524 | 5 | 284 | 0.0 | 0.0 | 0.00 | 0.00 | 0.00 | 77 | 1011.9 |
| 20260507023056 | 5 | 296 | 0.0 | 8.0 | 0.00 | 0.00 | 0.00 | 79 | 1011.9 |
| 20260507021532 | 5 | 304 | 0.0 | 0.0 | 0.00 | 0.00 | 0.00 | 81 | 1012.0 |
| 20260507020015 | 5 | 296 | 0.0 | 6.4 | 0.00 | 0.00 | 0.00 | 82 | 1012.1 |
| 20260507014550 | 5 | 292 | 0.0 | 0.0 | 0.00 | 0.00 | 0.00 | 83 | 1012.1 |
| 20260507013048 | 5 | 321 | 0.0 | 4.8 | 0.00 | 0.00 | 0.00 | 84 | 1012.2 |
| 20260507011530 | 5 | 305 | 0.0 | 6.4 | 0.00 | 0.00 | 0.00 | 84 | 1012.3 |
| 20260507010034 | 6 | 294 | 0.0 | 8.0 | 0.00 | 0.00 | 0.00 | 83 | 1012.4 |
| 20260507004503 | 6 | 304 | 0.0 | 8.0 | 0.00 | 0.00 | 0.00 | 83 | 1012.4 |
| 20260507003039 | 6 | 273 | 0.0 | 6.4 | 0.00 | 0.00 | 0.00 | 82 | 1012.6 |
| 20260507001514 | 6 | 314 | 0.0 | 4.8 | 0.00 | 0.00 | 0.00 | 81 | 1012.6 |
| 20260507000046 | 6 | 303 | 0.0 | 8.0 | 0.00 | 0.00 | 0.00 | 80 | 1012.8 |
| 20260506234522 | 6 | 292 | 0.0 | 4.8 | 0.00 | 0.00 | 0.00 | 79 | 1013.0 |
| 20260506233103 | 7 | 329 | 0.0 | 4.8 | 0.00 | 0.00 | 0.00 | 79 | 1013.1 |
| 20260506231527 | 7 | 20 | 0.0 | 6.4 | 0.00 | 0.00 | 0.00 | 79 | 1013.0 |
| 20260506230106 | 7 | 24 | 0.0 | 8.0 | 0.00 | 0.00 | 0.00 | 80 | 1013.1 |
| 20260506220023 | 7 | 271 | 0.0 | 6.4 | 0.00 | 0.00 | 0.00 | 77 | 1013.1 |
| 20260506214555 | 7 | 232 | 0.0 | 9.7 | 0.00 | 0.00 | 0.00 | 75 | 1013.2 |
| 20260506213023 | 8 | 265 | 0.0 | 4.8 | 0.00 | 0.00 | 0.00 | 72 | 1013.1 |
| 20260506211610 | 8 | 225 | 0.0 | 4.8 | 0.00 | 0.00 | 0.00 | 71 | 1013.1 |
| 20260506191551 | 8 | 360 | 0.0 | 0.0 | 0.00 | 0.03 | 0.00 | 72 | 1012.2 |
| 20260506190027 | 9 | 57 | 0.0 | 0.0 | 0.00 | 0.05 | 0.00 | 73 | 1012.1 |
| 20260506184521 | 10 | 57 | 0.0 | 0.0 | 0.00 | 0.05 | 0.00 | 66 | 1011.9 |
| 20260506183059 | 10 | 57 | 0.0 | 0.0 | 0.00 | 0.05 | 0.00 | 62 | 1011.8 |
| 20260506181535 | 11 | 65 | 0.0 | 4.8 | 0.00 | 0.05 | 0.00 | 60 | 1011.7 |
| 20260506180023 | 11 | 234 | 0.0 | 3.2 | 0.00 | 0.05 | 0.00 | 59 | 1011.6 |
| 20260506174519 | 11 | 306 | 0.0 | 1.6 | 0.00 | 0.05 | 0.00 | 59 | 1011.8 |
| 20260506173009 | 12 | 288 | 0.0 | 8.0 | 0.00 | 0.05 | 0.00 | 56 | 1011.9 |
| 20260506171505 | 13 | 101 | 1.6 | 9.7 | 0.00 | 0.05 | 0.00 | 53 | 1011.8 |
| 20260506170044 | 13 | 40 | 0.0 | 9.7 | 0.00 | 0.05 | 0.00 | 53 | 1011.8 |
| 20260506164519 | 13 | 132 | 0.0 | 11.3 | 0.00 | 0.05 | 0.00 | 52 | 1011.6 |
| 20260506163059 | 13 | 55 | 0.0 | 6.4 | 0.00 | 0.05 | 0.00 | 49 | 1011.5 |
| 20260506161527 | 13 | 44 | 0.0 | 6.4 | 0.00 | 0.05 | 0.00 | 51 | 1011.6 |
| 20260506160006 | 13 | 34 | 0.0 | 8.0 | 0.00 | 0.05 | 0.00 | 50 | 1011.7 |
| 20260506154547 | 12 | 56 | 0.0 | 0.0 | 0.00 | 0.05 | 0.00 | 57 | 1011.9 |
| 20260506153035 | 12 | 51 | 0.0 | 0.0 | 0.00 | 0.05 | 0.00 | 58 | 1011.9 |
| 20260506151528 | 12 | 119 | 0.0 | 1.6 | 0.00 | 0.05 | 0.00 | 56 | 1012.0 |
| 20260506150021 | 12 | 76 | 0.0 | 0.0 | 0.00 | 0.05 | 0.00 | 55 | 1011.9 |
| 20260506144516 | 13 | 98 | 0.0 | 0.0 | 0.00 | 0.05 | 0.00 | 56 | 1012.0 |
| 20260506143053 | 12 | 128 | 1.6 | 12.9 | 0.00 | 0.05 | 0.00 | 55 | 1012.1 |
| 20260506141604 | 12 | 124 | 0.0 | 4.8 | 0.00 | 0.05 | 0.00 | 52 | 1012.3 |
| 20260506140042 | 12 | 293 | 0.0 | 3.2 | 0.00 | 0.05 | 0.00 | 52 | 1012.4 |
| 20260506134538 | 13 | 143 | 0.0 | 9.7 | 0.00 | 0.05 | 0.00 | 49 | 1012.4 |
| 20260506133030 | 14 | 180 | 0.0 | 11.3 | 0.00 | 0.05 | 0.00 | 58 | 1012.5 |
| 20260506131523 | 13 | 44 | 0.0 | 6.4 | 0.00 | 0.05 | 0.00 | 55 | 1012.7 |
| 20260506130020 | 13 | 130 | 0.0 | 6.4 | 0.00 | 0.05 | 0.00 | 53 | 1012.7 |
| 20260506124549 | 13 | 170 | 0.0 | 6.4 | 0.00 | 0.05 | 0.00 | 47 | 1012.9 |
| 20260506123045 | 13 | 145 | 0.0 | 11.3 | 0.00 | 0.05 | 0.00 | 49 | 1012.8 |
| 20260506121514 | 12 | 55 | 0.0 | 1.6 | 0.00 | 0.05 | 0.00 | 57 | 1013.0 |
| 20260506120112 | 12 | 46 | 1.6 | 12.9 | 0.00 | 0.05 | 0.00 | 54 | 1013.1 |
| 20260506114545 | 12 | 77 | 0.0 | 4.8 | 0.00 | 0.05 | 0.00 | 56 | 1013.3 |
| 20260506113036 | 12 | 60 | 0.0 | 8.0 | 0.00 | 0.05 | 0.00 | 51 | 1013.4 |
| 20260506111528 | 11 | 115 | 0.0 | 14.5 | 0.00 | 0.05 | 0.00 | 55 | 1013.4 |
| 20260506110024 | 11 | 53 | 0.0 | 4.8 | 0.00 | 0.05 | 0.00 | 54 | 1013.5 |
| 20260506104559 | 11 | 167 | 0.0 | 11.3 | 0.00 | 0.05 | 0.00 | 56 | 1013.6 |
| 20260506103036 | 11 | 118 | 0.0 | 9.7 | 0.00 | 0.05 | 0.00 | 55 | 1013.5 |
| 20260506101512 | 11 | 28 | 0.0 | 12.9 | 0.00 | 0.05 | 0.00 | 54 | 1013.6 |
| 20260506100051 | 11 | 144 | 0.0 | 11.3 | 0.00 | 0.05 | 0.00 | 55 | 1013.7 |
| 20260506094533 | 11 | 121 | 0.0 | 9.7 | 0.00 | 0.05 | 0.00 | 55 | 1013.7 |
| 20260506093034 | 11 | 231 | 0.0 | 4.8 | 0.00 | 0.05 | 0.00 | 57 | 1013.5 |
| 20260506091512 | 10 | 105 | 1.6 | 11.3 | 0.00 | 0.05 | 0.00 | 57 | 1013.5 |